[[{"header":{"parameterUnit":"m.s-1","parameterCategory":1,"la1":30.2991,"la2":30.254,"lo1":-89.0895,"lo2":-89.0444,"dy":0.0017,"dx":0.0017,"nx":28,"ny":28,"refTime":"2024-03-22T21:00:00:Z","depth":0,"parameterNumber":2,"parameterNumberName":"U-component_of_WINDS"},"data":[0,0,0,0,0,0,0,0,0,0,0,0,0,0,0,0,0,0,0,0,0,0,0,0,0,0,0,0,0,0,0,0,0,0,0,0,0,0,0,0,0,0,0,0,0,0,0,0,0,0,0,0,0,0,0,0,0,0,-0.0434,-0.0434,0,-0.0433,-0.0433,-0.0433,-0.0422,-0.0421,-0.0421,-0.0421,-0.0421,-0.0422,-0.0422,0,0,0,0,0,0,0,0,0,0,0,0,0,-0.0426,-0.0426,-0.0434,-0.0434,-0.0434,-0.0433,-0.0433,-0.0433,-0.0422,-0.0421,-0.0421,-0.0421,-0.0421,-0.0422,-0.0422,0,0,0,0,0,0,0,0,0,0,0,0,0,-0.0428,-0.0426,-0.0434,-0.0428,-0.0428,-0.0433,-0.0433,-0.0433,-0.0422,-0.0421,-0.0421,-0.042,-0.0421,-0.0422,-0.0422,-0.0433,0,0,-0.0423,-0.0424,0,0,0,0,0,0,0,0,-0.0428,-0.0428,-0.0429,-0.0429,-0.0428,-0.0427,-0.043,-0.0433,-0.0422,-0.0424,-0.0421,-0.042,-0.0424,-0.0424,-0.0425,-0.0433,-0.0433,-0.0423,-0.0424,-0.0424,-0.0424,0,0,0,0,0,0,0,-0.0428,-0.0428,-0.0434,-0.0429,-0.0428,-0.0426,-0.0425,-0.0431,-0.0426,-0.0424,-0.0423,-0.0423,-0.0423,-0.0424,-0.0425,-0.0434,-0.0423,-0.0424,-0.0424,-0.0424,-0.0449,-0.045,0,0,0,0,0,0,-0.0428,-0.0428,-0.0434,-0.0433,-0.0427,-0.0426,-0.0426,-0.0428,-0.0426,-0.0426,-0.0423,-0.0422,-0.0424,-0.0424,-0.0425,-0.0437,-0.0424,-0.0424,-0.0425,-0.0449,-0.0449,-0.045,0,0,0,0,0,0,-0.0428,-0.0429,-0.0434,-0.043,-0.0431,-0.0427,-0.0429,-0.0428,-0.0429,-0.0426,-0.0425,-0.0425,-0.0424,-0.0424,-0.0431,-0.0436,-0.0425,-0.0425,-0.0448,-0.0449,-0.045,-0.0461,0,0,0,0,0,0,-0.0428,-0.0429,-0.0433,-0.0431,-0.0431,-0.044,-0.0429,-0.0428,-0.0429,-0.0428,-0.0427,-0.0427,-0.0423,-0.043,-0.0431,-0.0437,-0.0425,-0.0448,-0.0449,-0.0449,-0.046,-0.0462,-0.0464,0,0,0,0,0,-0.0428,-0.0437,-0.0434,-0.0434,-0.0436,-0.044,-0.044,-0.0436,-0.043,-0.0434,-0.0432,-0.0427,-0.0436,-0.0431,-0.0432,-0.0438,-0.0447,-0.0448,-0.0449,-0.046,-0.0462,-0.0464,0,0,0,0,0,0,-0.0442,-0.0437,-0.0433,-0.0442,-0.0441,-0.0438,-0.0444,-0.0438,-0.044,-0.0439,-0.0433,-0.0433,-0.044,-0.044,-0.0435,-0.0448,-0.044,-0.0442,-0.0448,-0.045,-0.0452,-0.0452,-0.0426,0,0,0,0,0,-0.0446,-0.0449,-0.0445,-0.0453,-0.0453,-0.0448,-0.045,-0.0446,-0.0445,-0.0445,-0.0444,-0.0444,-0.0446,-0.0448,-0.045,-0.046,-0.0459,-0.0464,-0.0466,-0.0467,-0.0469,-0.0472,-0.0474,-0.0453,-0.0453,-0.0453,0,0,-0.0455,-0.0452,-0.0455,-0.0456,-0.0455,-0.0458,-0.0448,-0.0453,-0.0455,-0.0446,-0.0452,-0.045,-0.045,-0.0457,-0.0461,-0.0457,-0.0474,-0.0469,-0.047,-0.047,-0.0473,-0.0475,-0.0477,-0.0453,-0.0453,-0.0453,0,0,-0.0472,-0.0471,-0.0477,-0.0476,-0.0474,-0.0471,-0.0472,-0.0469,-0.0467,-0.0473,-0.0466,-0.0468,-0.0473,-0.0472,-0.0473,-0.0487,-0.0482,-0.0488,-0.0497,-0.0501,-0.0502,-0.0504,-0.0508,-0.051,-0.0489,-0.0489,-0.0489,0,-0.0484,-0.0488,-0.0481,-0.0485,-0.0485,-0.0476,-0.0482,-0.0481,-0.0481,-0.0481,-0.0477,-0.0481,-0.048,-0.0487,-0.049,-0.0491,-0.0492,-0.0489,-0.0503,-0.0504,-0.0505,-0.0509,-0.0511,-0.049,-0.049,-0.049,-0.049,0,-0.0501,-0.0504,-0.0509,-0.0507,-0.0508,-0.0513,-0.0507,-0.0508,-0.0504,-0.05,-0.0505,-0.0503,-0.0504,-0.0505,-0.0502,-0.0511,-0.0509,-0.0504,-0.0496,-0.0508,-0.0512,-0.0513,-0.0491,-0.0491,-0.0491,-0.049,0,0,-0.0529,-0.0522,-0.0524,-0.0522,-0.0519,-0.0521,-0.0524,-0.0524,-0.0525,-0.0525,-0.0527,-0.053,-0.0525,-0.0525,-0.0521,-0.0524,-0.0534,-0.0518,-0.0518,-0.0521,-0.0543,-0.0546,-0.0548,-0.053,-0.0531,-0.0531,-0.0543,0,-0.0545,-0.0551,-0.0544,-0.0552,-0.0554,-0.0544,-0.0547,-0.0545,-0.0541,-0.0542,-0.0539,-0.054,-0.0534,-0.0533,-0.0536,-0.0532,-0.0538,-0.0531,-0.0533,-0.0533,-0.0533,-0.055,-0.0555,-0.0566,-0.0544,-0.0544,-0.0544,0,-0.0566,-0.0564,-0.0571,-0.0565,-0.0566,-0.0569,-0.0567,-0.0568,-0.0565,-0.0562,-0.0561,-0.0555,-0.0558,-0.0551,-0.0554,-0.0549,-0.0549,-0.0547,-0.0548,-0.0548,-0.0539,-0.0551,-0.057,-0.0571,-0.0547,-0.0547,-0.0546,0,-0.0584,-0.0584,-0.0588,-0.0587,-0.058,-0.0582,-0.058,-0.0576,-0.0576,-0.0574,-0.0574,-0.0573,-0.0572,-0.0572,-0.0566,-0.0561,-0.0569,-0.0562,-0.0567,-0.0567,-0.0569,-0.0569,-0.0588,-0.057,-0.057,-0.057,-0.057,0,-0.0603,-0.0607,-0.0596,-0.0598,-0.0603,-0.0594,-0.0599,-0.0595,-0.0592,-0.0593,-0.0585,-0.0586,-0.0578,-0.0578,-0.0573,-0.0576,-0.0576,-0.0573,-0.0572,-0.0574,-0.0574,-0.0574,-0.0573,-0.057,-0.057,-0.057,-0.057,0,-0.0625,-0.0617,-0.0621,-0.0613,-0.0611,-0.0615,-0.0608,-0.061,-0.0605,-0.0606,-0.0606,-0.0599,-0.0598,-0.0592,-0.0591,-0.0587,-0.0592,-0.0589,-0.0593,-0.0592,-0.0597,-0.0596,-0.0616,-0.0618,-0.0599,-0.0599,-0.0599,0,-0.0637,-0.064,-0.0632,-0.0632,-0.0629,-0.0629,-0.0628,-0.062,-0.0619,-0.0614,-0.0616,-0.0615,-0.0613,-0.0613,-0.0608,-0.0606,-0.0603,-0.061,-0.0603,-0.0604,-0.0602,-0.0602,-0.0602,-0.0612,-0.0612,-0.0612,-0.0612,0,-0.0659,-0.0655,-0.0654,-0.0651,-0.0649,-0.0647,-0.0644,-0.0644,-0.0634,-0.0634,-0.0633,-0.0631,-0.0629,-0.0627,-0.0624,-0.0622,-0.0615,-0.0614,-0.0615,-0.0618,-0.0619,-0.0617,-0.0596,-0.0614,-0.0614,-0.0614,-0.0614,-0.0614,-0.0677,-0.0678,-0.0672,-0.0671,-0.0667,-0.0664,-0.0664,-0.0658,-0.0657,-0.0654,-0.0649,-0.0648,-0.0643,-0.0638,-0.0635,-0.0635,-0.0631,-0.0633,-0.0633,-0.0634,-0.0634,-0.0619,-0.0634,-0.0634,-0.0634,-0.0634,-0.0634,0,-0.0698,-0.0693,-0.0691,-0.0686,-0.0685,-0.0678,-0.0673,-0.0673,-0.0672,-0.0667,-0.0665,-0.0663,-0.0661,-0.0654,-0.0652,-0.0652,-0.0649,-0.0652,-0.0651,-0.0651,-0.0638,-0.0637,-0.0654,-0.0654,-0.0654,-0.0654,-0.0654,-0.0654,-0.0709,-0.071,-0.0705,-0.0704,-0.0699,-0.0698,-0.0696,-0.0692,-0.0689,-0.0686,-0.0684,-0.0679,-0.0674,-0.067,-0.0667,-0.0666,-0.0665,-0.0668,-0.0665,-0.0654,-0.0652,-0.065,-0.0649,-0.0668,-0.0668,-0.0678,-0.0678,-0.0678]},{"header":{"parameterUnit":"m.s-1","parameterCategory":1,"la1":30.2991,"la2":30.254,"lo1":-89.0895,"lo2":-89.0444,"dy":0.0017,"dx":0.0017,"nx":28,"ny":28,"refTime":"2024-03-22T21:00:00:Z","depth":0,"parameterNumber":3,"parameterNumberName":"V-component_of_WINDS"},"data":[0,0,0,0,0,0,0,0,0,0,0,0,0,0,0,0,0,0,0,0,0,0,0,0,0,0,0,0,0,0,0,0,0,0,0,0,0,0,0,0,0,0,0,0,0,0,0,0,0,0,0,0,0,0,0,0,0,0,-6.0238,-6.0238,0,-6.0214,-6.0214,-6.0214,-6.0201,-6.02,-6.02,-6.02,-6.0172,-6.0171,-6.0171,0,0,0,0,0,0,0,0,0,0,0,0,0,-6.0269,-6.0269,-6.0238,-6.0238,-6.0237,-6.0214,-6.0214,-6.0214,-6.0201,-6.02,-6.02,-6.02,-6.0172,-6.0171,-6.0171,0,0,0,0,0,0,0,0,0,0,0,0,0,-6.0252,-6.0269,-6.0238,-6.0228,-6.0227,-6.0214,-6.0214,-6.0213,-6.0201,-6.02,-6.02,-6.02,-6.0173,-6.0172,-6.017,-6.0164,0,0,-6.0167,-6.0167,0,0,0,0,0,0,0,0,-6.0253,-6.025,-6.023,-6.0229,-6.0227,-6.021,-6.0215,-6.0197,-6.0201,-6.021,-6.02,-6.02,-6.0185,-6.0182,-6.0178,-6.0163,-6.0162,-6.0167,-6.0166,-6.0166,-6.0166,0,0,0,0,0,0,0,-6.0254,-6.0251,-6.0228,-6.0229,-6.0228,-6.0224,-6.0222,-6.0211,-6.0198,-6.021,-6.0209,-6.0206,-6.0184,-6.0179,-6.0177,-6.0161,-6.0167,-6.0166,-6.0165,-6.0165,-6.0143,-6.0143,0,0,0,0,0,0,-6.0257,-6.0252,-6.0229,-6.0228,-6.024,-6.0224,-6.0221,-6.0216,-6.0198,-6.0195,-6.0206,-6.0206,-6.0181,-6.0179,-6.0176,-6.0169,-6.0166,-6.0165,-6.0164,-6.0143,-6.0143,-6.0143,0,0,0,0,0,0,-6.0258,-6.0255,-6.023,-6.024,-6.0236,-6.0223,-6.0218,-6.0215,-6.0211,-6.0196,-6.0193,-6.0204,-6.0181,-6.0178,-6.0168,-6.0168,-6.0164,-6.0163,-6.0142,-6.0143,-6.0143,-6.0154,0,0,0,0,0,0,-6.0259,-6.0255,-6.0253,-6.024,-6.0236,-6.0223,-6.0218,-6.0215,-6.0209,-6.0208,-6.0193,-6.019,-6.0181,-6.017,-6.0167,-6.0166,-6.0162,-6.0142,-6.0142,-6.0143,-6.0154,-6.0155,-6.0155,0,0,0,0,0,-6.026,-6.0256,-6.0253,-6.0251,-6.0233,-6.0223,-6.0221,-6.0211,-6.0209,-6.0207,-6.0198,-6.019,-6.0169,-6.0169,-6.0166,-6.0165,-6.0142,-6.0142,-6.0143,-6.0153,-6.0154,-6.0155,0,0,0,0,0,0,-6.0267,-6.0254,-6.0251,-6.0243,-6.0235,-6.0221,-6.0217,-6.0212,-6.0203,-6.0202,-6.019,-6.0186,-6.0178,-6.017,-6.0171,-6.0159,-6.0155,-6.0154,-6.0164,-6.0165,-6.0166,-6.0168,-6.0162,0,0,0,0,0,-6.0269,-6.0263,-6.0251,-6.0245,-6.0241,-6.023,-6.0225,-6.0219,-6.0209,-6.0205,-6.0195,-6.0185,-6.0176,-6.017,-6.0161,-6.0153,-6.015,-6.0151,-6.0152,-6.0153,-6.0152,-6.0149,-6.0149,-6.0143,-6.0143,-6.0143,0,0,-6.027,-6.0262,-6.0259,-6.0246,-6.0239,-6.0233,-6.0227,-6.022,-6.0215,-6.0204,-6.0195,-6.0187,-6.0175,-6.0167,-6.0163,-6.016,-6.0153,-6.0153,-6.0153,-6.0152,-6.0149,-6.0149,-6.015,-6.0143,-6.0143,-6.0143,0,0,-6.0269,-6.0263,-6.0258,-6.0252,-6.0242,-6.0235,-6.0234,-6.0222,-6.0217,-6.0209,-6.0201,-6.0194,-6.0179,-6.0171,-6.0165,-6.0166,-6.0159,-6.0163,-6.0167,-6.0164,-6.0164,-6.0164,-6.0165,-6.0165,-6.0162,-6.0162,-6.0162,0,-6.0272,-6.0263,-6.0256,-6.025,-6.0245,-6.0237,-6.0232,-6.0226,-6.0213,-6.021,-6.0208,-6.019,-6.0181,-6.0172,-6.0172,-6.0167,-6.0166,-6.0164,-6.0165,-6.0165,-6.0165,-6.0166,-6.0166,-6.0163,-6.0163,-6.0163,-6.0163,0,-6.0267,-6.0261,-6.0258,-6.0248,-6.0243,-6.0238,-6.0229,-6.0225,-6.022,-6.0214,-6.0206,-6.0195,-6.0185,-6.0182,-6.0176,-6.0173,-6.0172,-6.0167,-6.0163,-6.0167,-6.0167,-6.0167,-6.0164,-6.0164,-6.0163,-6.0163,0,0,-6.0268,-6.0257,-6.0256,-6.0252,-6.0242,-6.0237,-6.0232,-6.0223,-6.022,-6.0212,-6.0207,-6.0196,-6.0193,-6.0187,-6.018,-6.0177,-6.0179,-6.0174,-6.0173,-6.0175,-6.0176,-6.0179,-6.0179,-6.0176,-6.0176,-6.0176,-6.0177,0,-6.0266,-6.0257,-6.0252,-6.0245,-6.024,-6.0234,-6.023,-6.0223,-6.0217,-6.0212,-6.0205,-6.0198,-6.0194,-6.019,-6.0188,-6.018,-6.0179,-6.018,-6.017,-6.017,-6.0173,-6.0179,-6.0181,-6.0183,-6.0177,-6.0177,-6.0177,0,-6.0261,-6.0256,-6.025,-6.0243,-6.024,-6.0237,-6.023,-6.0225,-6.0217,-6.0213,-6.0208,-6.0202,-6.0196,-6.0194,-6.0186,-6.0186,-6.0183,-6.0178,-6.0178,-6.0176,-6.0173,-6.0177,-6.0183,-6.0183,-6.0177,-6.0177,-6.0177,0,-6.0264,-6.0255,-6.025,-6.0247,-6.0239,-6.0236,-6.0232,-6.0225,-6.0221,-6.0215,-6.0213,-6.0205,-6.0201,-6.0195,-6.0188,-6.0187,-6.0181,-6.0177,-6.0177,-6.0178,-6.0175,-6.0175,-6.0181,-6.0174,-6.0174,-6.0174,-6.0174,0,-6.0261,-6.0258,-6.0251,-6.0248,-6.0244,-6.0239,-6.0235,-6.023,-6.0224,-6.022,-6.0214,-6.021,-6.0201,-6.0196,-6.019,-6.0185,-6.0183,-6.018,-6.0178,-6.018,-6.018,-6.0176,-6.0176,-6.0174,-6.0174,-6.0174,-6.0174,0,-6.0262,-6.0258,-6.0252,-6.0246,-6.0245,-6.0242,-6.0236,-6.0233,-6.0228,-6.0223,-6.0222,-6.0214,-6.0208,-6.0201,-6.0192,-6.0188,-6.0184,-6.0181,-6.0187,-6.0186,-6.0186,-6.0186,-6.0189,-6.0189,-6.0182,-6.0182,-6.0183,0,-6.026,-6.0258,-6.0252,-6.025,-6.0247,-6.0243,-6.024,-6.0235,-6.0232,-6.0225,-6.0223,-6.0217,-6.0212,-6.0203,-6.0196,-6.019,-6.0187,-6.0189,-6.0186,-6.0189,-6.0187,-6.0188,-6.0188,-6.0189,-6.0189,-6.0189,-6.0189,0,-6.0259,-6.0258,-6.0254,-6.025,-6.0248,-6.0244,-6.024,-6.0238,-6.0232,-6.0229,-6.0224,-6.0221,-6.0213,-6.0208,-6.0201,-6.0196,-6.0192,-6.0191,-6.019,-6.0192,-6.0195,-6.0194,-6.0188,-6.019,-6.019,-6.019,-6.019,-6.019,-6.0258,-6.0256,-6.0253,-6.0249,-6.0247,-6.0244,-6.0241,-6.0238,-6.0234,-6.0229,-6.0226,-6.0222,-6.0216,-6.0207,-6.0203,-6.0199,-6.0197,-6.0197,-6.0197,-6.0196,-6.0197,-6.0197,-6.0198,-6.0198,-6.0198,-6.0198,-6.0198,0,-6.0256,-6.0254,-6.0252,-6.0248,-6.0246,-6.0244,-6.024,-6.0238,-6.0235,-6.0231,-6.0227,-6.0222,-6.0218,-6.0212,-6.0207,-6.0205,-6.0203,-6.0204,-6.0203,-6.0203,-6.0199,-6.02,-6.0206,-6.0206,-6.0206,-6.0206,-6.0206,-6.0206,-6.0254,-6.0252,-6.0251,-6.0247,-6.0245,-6.0242,-6.024,-6.0238,-6.0235,-6.023,-6.0227,-6.0224,-6.022,-6.0215,-6.0211,-6.0209,-6.0208,-6.0209,-6.0207,-6.0203,-6.0203,-6.0202,-6.0203,-6.0209,-6.0209,-6.0211,-6.0211,-6.0211]}]]